{"data":{"norad_id":55056,"epoch":"2026-05-25T02:28:53.932800Z","epoch_age_seconds":76766,"freshness":"FRESH","line1":"1 55056U 23001AZ  26145.10340200  .00021187  00000+0  27236-3 0  9996","line2":"2 55056  97.3236 215.8670 0005040 202.5001 157.6035 15.59099564189065","mean_motion":15.59099564,"eccentricity":0.000504,"inclination_deg":97.3236,"raan_deg":215.867,"arg_perigee_deg":202.5001,"mean_anomaly_deg":157.6035,"bstar":0.00027236,"rev_number":18906,"period_min":92.361003315629,"perigee_km":386.85054981074,"apogee_km":393.67309582414,"semimajor_km":6768.3988228174,"source":"CELESTRAK","updated_at":"2026-05-25T13:37:58.813391Z"}}